Location: 433rd Scouts Home(Lloyd Manor Park, Etobicoke )
(43.6722°N, 79.5542°W)
Time: 10:58:01
(UTC-04:00)

Nauka - Pass Details

Date: 29 September 2021
Orbit: 417 x 423 km, 51.6° (Epoch: 26 October)

Event Time Altitude Azimuth Distance (km) Brightness Sun altitude
Rises 20:26:50 0° 303° (WNW) 2,366 ? -16.1°
Reaches altitude 10° 20:29:05 10° 314° (NW) 1,501 ? -16.5°
Maximum altitude 20:32:08 31° 19° (NNE) 761 ? -17.0°
Enters shadow 20:32:47 29° 43° (NE) 810 ? -17.1°
